JBU204 KJFK-KDCA

Flight info

Callsign JBU204
Flight time N/A
Altitude 30000
Route RBV Q430 COPES Q75 MXE CLIPR3
Aircraft A320/M-SDE3FGHIRWY/LB1

Departure

Time 2026-05-04 22:09
Airport John F. Kennedy International Airport (KJFK)

Arrival

Time N/A
Airport Ronald Reagan Washington National Airport (KDCA)
Time Latitude Longitude Altitude Speed Heading
2026-05-04 21:19 40.64694 -73.77575 23 ft 0 kts 229°
2026-05-04 21:55 40.64699 -73.77568 23 ft 4 kts 230°
2026-05-04 21:56 40.64715 -73.77540 26 ft 4 kts 240°
2026-05-04 21:56 40.64725 -73.77508 23 ft 4 kts 261°
2026-05-04 21:56 40.64724 -73.77477 24 ft 2 kts 301°
2026-05-04 21:56 40.64723 -73.77476 24 ft 1 kts 301°
2026-05-04 22:00 40.64736 -73.77504 24 ft 11 kts 300°
2026-05-04 22:00 40.64792 -73.77629 24 ft 14 kts 300°
2026-05-04 22:00 40.64842 -73.77651 23 ft 4 kts 76°
2026-05-04 22:00 40.64877 -73.77572 21 ft 15 kts 60°
2026-05-04 22:01 40.64838 -73.77436 22 ft 19 kts 123°
2026-05-04 22:01 40.64770 -73.77286 23 ft 20 kts 121°
2026-05-04 22:01 40.64686 -73.77121 23 ft 20 kts 137°
2026-05-04 22:01 40.64586 -73.77075 21 ft 14 kts 136°
2026-05-04 22:02 40.64588 -73.76943 19 ft 17 kts 57°
2026-05-04 22:02 40.64689 -73.76847 19 ft 19 kts 30°
2026-05-04 22:02 40.64808 -73.76754 20 ft 20 kts 31°
2026-05-04 22:02 40.64928 -73.76662 23 ft 21 kts 30°
2026-05-04 22:03 40.65059 -73.76561 23 ft 23 kts 30°
2026-05-04 22:03 40.65094 -73.76457 22 ft 9 kts 116°
2026-05-04 22:03 40.65091 -73.76449 24 ft 0 kts 118°
2026-05-04 22:04 40.65089 -73.76446 23 ft 1 kts 118°
2026-05-04 22:04 40.65086 -73.76437 24 ft 0 kts 118°
2026-05-04 22:06 40.65057 -73.76375 23 ft 14 kts 130°
2026-05-04 22:07 40.64988 -73.76379 23 ft 7 kts 207°
2026-05-04 22:07 40.64978 -73.76387 23 ft 0 kts 212°
2026-05-04 22:08 40.64954 -73.76406 22 ft 22 kts 211°
2026-05-04 22:08 40.64610 -73.76675 21 ft 87 kts 211°
2026-05-04 22:09 40.63961 -73.77178 22 ft 126 kts 210°
2026-05-04 22:09 40.63117 -73.77832 264 ft 144 kts 207°
2026-05-04 22:09 40.62281 -73.78530 937 ft 142 kts 208°
2026-05-04 22:09 40.61408 -73.79213 1510 ft 154 kts 211°
2026-05-04 22:10 40.60426 -73.79960 1886 ft 176 kts 211°
2026-05-04 22:10 40.59473 -73.81106 2231 ft 199 kts 233°
2026-05-04 22:10 40.58586 -73.82654 2647 ft 224 kts 234°
2026-05-04 22:10 40.57614 -73.84380 3270 ft 242 kts 235°
2026-05-04 22:11 40.56599 -73.86180 4255 ft 247 kts 235°
2026-05-04 22:11 40.55564 -73.88011 5210 ft 250 kts 235°
2026-05-04 22:11 40.54519 -73.89851 6173 ft 253 kts 234°
2026-05-04 22:11 40.53458 -73.91715 7064 ft 256 kts 235°
2026-05-04 22:12 40.52386 -73.93598 7956 ft 259 kts 235°
2026-05-04 22:12 40.51300 -73.95509 8820 ft 263 kts 236°
2026-05-04 22:12 40.50194 -73.97455 9667 ft 267 kts 236°
2026-05-04 22:12 40.49065 -73.99439 10272 ft 279 kts 237°
2026-05-04 22:13 40.47855 -74.01569 10538 ft 302 kts 237°
2026-05-04 22:13 40.46574 -74.03816 11084 ft 311 kts 236°
2026-05-04 22:13 40.45283 -74.06074 11797 ft 315 kts 236°
2026-05-04 22:13 40.43956 -74.08389 12531 ft 318 kts 236°
2026-05-04 22:14 40.42616 -74.10714 13297 ft 321 kts 236°
2026-05-04 22:14 40.41264 -74.13059 14006 ft 323 kts 236°
2026-05-04 22:14 40.39904 -74.15422 14666 ft 326 kts 236°
2026-05-04 22:14 40.38531 -74.17814 15287 ft 330 kts 237°
2026-05-04 22:15 40.37145 -74.20228 15906 ft 333 kts 237°
2026-05-04 22:15 40.35745 -74.22662 16534 ft 336 kts 237°
2026-05-04 22:15 40.34330 -74.25122 16910 ft 339 kts 237°
2026-05-04 22:15 40.32910 -74.27589 16992 ft 339 kts 237°
2026-05-04 22:16 40.31491 -74.30056 16999 ft 339 kts 237°
2026-05-04 22:16 40.30071 -74.32520 17000 ft 339 kts 237°
2026-05-04 22:16 40.28645 -74.34988 17000 ft 338 kts 237°
2026-05-04 22:16 40.27245 -74.37412 16985 ft 338 kts 237°
2026-05-04 22:17 40.25824 -74.39867 16996 ft 339 kts 237°
2026-05-04 22:17 40.24396 -74.42329 16995 ft 339 kts 237°
2026-05-04 22:17 40.22967 -74.44785 16994 ft 339 kts 237°
2026-05-04 22:17 40.21583 -74.47275 16976 ft 337 kts 242°
2026-05-04 22:18 40.20563 -74.50000 16986 ft 332 kts 253°
2026-05-04 22:18 40.19989 -74.52916 16985 ft 330 kts 263°
2026-05-04 22:18 40.19749 -74.55896 16984 ft 330 kts 266°
2026-05-04 22:18 40.19522 -74.58878 16980 ft 329 kts 265°
2026-05-04 22:19 40.19289 -74.61863 16983 ft 329 kts 265°
2026-05-04 22:19 40.19053 -74.64844 16980 ft 329 kts 265°
2026-05-04 22:19 40.18815 -74.67826 16991 ft 330 kts 265°
2026-05-04 22:19 40.18573 -74.70839 17549 ft 334 kts 265°
2026-05-04 22:20 40.18328 -74.73865 18224 ft 336 kts 265°
2026-05-04 22:20 40.18083 -74.76913 18775 ft 339 kts 266°
2026-05-04 22:20 40.17838 -74.79987 19347 ft 341 kts 266°
2026-05-04 22:20 40.17590 -74.83091 19912 ft 344 kts 266°
2026-05-04 22:21 40.17340 -74.86217 20472 ft 347 kts 266°
2026-05-04 22:21 40.17085 -74.89367 20992 ft 350 kts 266°
2026-05-04 22:21 40.16825 -74.92549 21496 ft 353 kts 266°
2026-05-04 22:21 40.16564 -74.95751 21838 ft 355 kts 266°
2026-05-04 22:22 40.16304 -74.98935 21904 ft 346 kts 267°
2026-05-04 22:22 40.16049 -75.02011 21924 ft 341 kts 267°
2026-05-04 22:22 40.15795 -75.05090 21923 ft 340 kts 267°
2026-05-04 22:22 40.15543 -75.08161 21919 ft 340 kts 267°
2026-05-04 22:23 40.15290 -75.11238 21918 ft 340 kts 266°
2026-05-04 22:23 40.15036 -75.14309 21925 ft 340 kts 266°
2026-05-04 22:23 40.14783 -75.17378 21925 ft 339 kts 267°
2026-05-04 22:23 40.14534 -75.20403 21925 ft 339 kts 267°
2026-05-04 22:24 40.14278 -75.23469 21925 ft 339 kts 266°
2026-05-04 22:24 40.14016 -75.26540 21926 ft 339 kts 266°
2026-05-04 22:24 40.13754 -75.29608 21926 ft 339 kts 266°
2026-05-04 22:24 40.13494 -75.32683 21928 ft 339 kts 266°
2026-05-04 22:25 40.13021 -75.35717 21925 ft 343 kts 256°
2026-05-04 22:25 40.12045 -75.38587 21930 ft 349 kts 244°
2026-05-04 22:25 40.10599 -75.41119 21928 ft 356 kts 232°
2026-05-04 22:25 40.08886 -75.43465 21916 ft 357 kts 232°
2026-05-04 22:26 40.07177 -75.45818 21922 ft 357 kts 232°
2026-05-04 22:26 40.05474 -75.48184 21932 ft 357 kts 232°
2026-05-04 22:26 40.03773 -75.50550 21926 ft 357 kts 232°
2026-05-04 22:26 40.02090 -75.52887 21670 ft 348 kts 232°
2026-05-04 22:27 40.00446 -75.55159 21407 ft 340 kts 232°
2026-05-04 22:27 39.98837 -75.57378 21134 ft 333 kts 232°
2026-05-04 22:27 39.97253 -75.59562 20877 ft 330 kts 232°
2026-05-04 22:27 39.95678 -75.61732 20629 ft 328 kts 232°
2026-05-04 22:28 39.94113 -75.63886 20372 ft 326 kts 231°
2026-05-04 22:28 39.92553 -75.66027 20117 ft 325 kts 232°
2026-05-04 22:28 39.91154 -75.68291 19874 ft 319 kts 240°
2026-05-04 22:28 39.89920 -75.70687 19624 ft 317 kts 240°
2026-05-04 22:29 39.88705 -75.73035 19365 ft 316 kts 240°
2026-05-04 22:29 39.87474 -75.75408 19128 ft 314 kts 240°
2026-05-04 22:29 39.86250 -75.77761 18896 ft 313 kts 240°
2026-05-04 22:29 39.85029 -75.80104 18651 ft 312 kts 240°
2026-05-04 22:30 39.83811 -75.82436 18408 ft 311 kts 240°
2026-05-04 22:30 39.82590 -75.84768 18175 ft 310 kts 240°
2026-05-04 22:30 39.81376 -75.87087 17906 ft 309 kts 240°
2026-05-04 22:30 39.80168 -75.89396 17639 ft 308 kts 240°
2026-05-04 22:31 39.78968 -75.91692 17377 ft 306 kts 240°
2026-05-04 22:31 39.77772 -75.93977 17115 ft 305 kts 239°
2026-05-04 22:31 39.76595 -75.96220 16858 ft 303 kts 239°
2026-05-04 22:31 39.75410 -75.98478 16595 ft 302 kts 239°
2026-05-04 22:32 39.74228 -76.00728 16344 ft 301 kts 239°
2026-05-04 22:32 39.73052 -76.02967 16089 ft 299 kts 239°
2026-05-04 22:32 39.71880 -76.05197 15840 ft 298 kts 239°
2026-05-04 22:32 39.70711 -76.07421 15588 ft 297 kts 239°
2026-05-04 22:33 39.69554 -76.09627 15339 ft 295 kts 239°
2026-05-04 22:33 39.68398 -76.11825 15093 ft 294 kts 239°
2026-05-04 22:33 39.67245 -76.14015 14848 ft 293 kts 239°
2026-05-04 22:33 39.66099 -76.16188 14611 ft 289 kts 239°
2026-05-04 22:34 39.64971 -76.18321 14368 ft 285 kts 239°
2026-05-04 22:34 39.63850 -76.20442 14122 ft 284 kts 239°
2026-05-04 22:34 39.62732 -76.22554 13875 ft 283 kts 239°
2026-05-04 22:34 39.61623 -76.24656 13644 ft 281 kts 239°
2026-05-04 22:35 39.60518 -76.26746 13375 ft 280 kts 239°
2026-05-04 22:35 39.59422 -76.28787 13108 ft 280 kts 236°
2026-05-04 22:35 39.58071 -76.30608 12848 ft 282 kts 224°
2026-05-04 22:35 39.56457 -76.32077 12590 ft 284 kts 219°
2026-05-04 22:36 39.54814 -76.33496 12331 ft 283 kts 219°
2026-05-04 22:36 39.53180 -76.34911 12075 ft 281 kts 219°
2026-05-04 22:36 39.51562 -76.36318 11925 ft 277 kts 219°
2026-05-04 22:36 39.50475 -76.37265 12004 ft 280 kts 219°
2026-05-04 22:37 39.48844 -76.38690 12015 ft 282 kts 219°
2026-05-04 22:37 39.47232 -76.40095 12019 ft 283 kts 219°
2026-05-04 22:37 39.45599 -76.41516 12019 ft 283 kts 219°
2026-05-04 22:37 39.43965 -76.42935 11961 ft 283 kts 219°
2026-05-04 22:38 39.42332 -76.44350 11838 ft 282 kts 219°
2026-05-04 22:38 39.40705 -76.45752 11717 ft 281 kts 219°